一网星座-0365星 (ONEWEB-0365 )

导读 | 星芒AI

ONEWEB-0365 是 OneWeb 卫星星座计划中的一颗低轨通信卫星,旨在为全球提供高速互联网服务。该卫星于2023年发射,属于OneWeb第二代卫星批次,具备更高性能和更强的覆盖能力。其部署有助于填补全球数字鸿沟,特别是在偏远和农村地区。该卫星采用先进通信技术,支持高带宽数据传输,并与OneWeb其他卫星协同工作,构建全球无缝网络连接。

基本信息
目录编号:
49291
目录名称:
ONEWEB-0365
国际标识:
2021-090N
轨道中心:
EARTH
卫星名称:
一网星座-0365星
卫星全名:
一网星座-0365星 (ONEWEB-0365 )
卫星状态:
在轨 (已飞行1477 天)
发射日期:
2021-10-14 UTC
国别 :
英国 (GB)
星等 :
--
轨道信息
数据来源 国际轨道数据 AOE轨道数据
星历时间 2025-10-30T04:31:38+0800
8小时前
查看轨道信息
2025-10-28T05:00:00+0800
2天前
查看轨道信息
半长轴 7563.908km 7563.911km
偏心率 0.0001974 0.00019
轨道倾角 87.925° 87.924°
近地点辐角 99.753° 102.208°
升交点赤经 350.775° 351.167°
平近点角 260.383° 214.914°
近地点 1184.279km 1184.338km
远地点 1187.267km 1187.214km
周期 109.114分钟 109.114分钟
每日圈数 13.19725 13.197243
详细信息
平衡模式:
三轴稳定
覆盖范围:
全球
运营商:
一网卫星公司
运营商所在国:
英国
制造商(研发单位):
一网卫星公司
制造商所在国:
英国
使用方式:
暂无
卫星简介
OneWeb卫星网络由648颗重约125公斤的微型卫星组成,运行在1200公里的轨道上。 每颗卫星都能够提供至少每秒8千兆位的吞吐量,以使用其高吞吐量的Ku频段有效载荷为家庭和移动平台提供互联网接入。该卫星仍在工作。
2D轨道图
3D轨道图
轨道高度分析图
轨道倾角分析图
轨道综合分析图
查看轨道综合分析图